Flag for Spain Weather past 2 weeks in Valencia, Spain

Now
45 °F

Sunny.


Feels Like: 41 °F
Forecast: 46 / 60 °F
Wind: 7 mph from West

Location: Valencia / Aeropuerto

Current Time: Dec 27, 2014 at 9:49:48 AM

Latest Report: Dec 27, 2014 at 9:00 AM


Visibility: 10 mi

Pressure: 30.24 "Hg

Humidity: 81%

Dew point: 39 °F

Location of ValenciaLocation

Historic Weather in Valencia — Graph

°F

Valencia temperature yesterday

Maximum temperature yesterday: 61 °F (at 1:00 PM)
Minimum temperature yesterday: 37 °F (at 8:00 AM)
Average temperature yesterday: 48 °F

Past Weeks' High & Low Weather Summary

 TemperatureHumidityPressure
High68 °F (Dec 18, 2:00 PM)100% (Dec 15, 1:00 AM)30.51 "Hg (Dec 15, 1:00 AM)
Low36 °F (Dec 23, 8:00 AM)35% (Dec 12, 3:00 PM)29.86 "Hg (Dec 14, 8:30 PM)
Average51 °F79%30.24 "Hg
* Reported Dec 12 8:00 AM — Dec 27 8:30 AM, Valencia, Weather by CustomWeather, © 2014

Note: Actual official high and low records may vary slightly from our data, if they occured in-between our weather recording intervals... More about our weather records

Advertising

Valencia weather history for previous 24 hours

 ConditionsComfort  
Time TempWeatherWind HumidityBarometerVisibility
8:30 AM
Dec 27
45 °FSunny.9 mph81%30.24 "Hg10 mi
8:00 AM46 °FClear.8 mph76%30.24 "Hg10 mi
7:30 AM45 °FClear.6 mph81%30.24 "Hg10 mi
7:00 AM45 °FClear.8 mph81%30.24 "Hg10 mi
6:30 AM41 °FClear.2 mph93%30.24 "Hg10 mi
6:00 AM41 °FClear.3 mph93%30.27 "Hg10 mi
5:30 AM41 °FClear.3 mph87%30.27 "Hg10 mi
4:30 AM39 °FClear.7 mph93%30.27 "Hg10 mi
4:00 AM39 °FClear.5 mph93%30.30 "Hg10 mi
3:30 AM41 °FClear.5 mph93%30.30 "Hg10 mi
3:00 AM41 °FClear.6 mph93%30.30 "Hg10 mi
2:30 AM41 °FClear.3 mph93%30.33 "Hg10 mi
2:00 AM41 °FClear.3 mph93%30.33 "Hg10 mi
1:30 AM41 °FClear.2 mph93%30.33 "Hg10 mi
1:00 AM41 °FClear.3 mph93%30.36 "Hg10 mi
12:30 AM41 °FClear.3 mph93%30.36 "Hg10 mi
12:00 AM41 °FClear.3 mph93%30.36 "Hg10 mi
11:30 PM
Dec 26
43 °FClear.3 mph87%30.36 "Hg10 mi
11:00 PM43 °FClear.5 mph87%30.36 "Hg10 mi
10:00 PM43 °FClear.3 mph93%30.39 "Hg10 mi
9:30 PM45 °FClear.5 mph87%30.39 "Hg10 mi
9:00 PM46 °FClear.2 mph87%30.39 "Hg10 mi
8:30 PM46 °FClear.2 mph82%30.39 "Hg10 mi
8:00 PM46 °FClear.3 mph87%30.39 "Hg10 mi
7:30 PM48 °FClear.1 mph82%30.39 "Hg10 mi
7:00 PM54 °FClear.No wind63%30.36 "Hg10 mi
6:30 PM54 °FClear.1 mph67%30.36 "Hg10 mi
6:00 PM57 °FPassing clouds.3 mph55%30.36 "HgN/A
5:30 PM57 °FPassing clouds.3 mph55%30.36 "HgN/A
5:00 PM59 °FSunny.7 mph55%30.36 "Hg10 mi
4:30 PM59 °FSunny.5 mph51%30.36 "Hg10 mi
4:00 PM61 °FPassing clouds.3 mph45%30.36 "HgN/A
3:30 PM61 °FPassing clouds.3 mph45%30.36 "HgN/A
3:00 PM61 °FPassing clouds.3 mph45%30.36 "HgN/A
2:30 PM61 °FPassing clouds.2 mph45%30.39 "HgN/A
2:00 PM61 °FPassing clouds.1 mph42%30.39 "HgN/A
1:30 PM61 °FPassing clouds.No wind42%30.39 "HgN/A
1:00 PM61 °FPassing clouds.No wind45%30.42 "HgN/A
12:30 PM59 °FSunny.No wind51%30.42 "Hg10 mi
12:00 PM57 °FSunny.No wind55%30.45 "Hg10 mi
11:30 AM54 °FSunny.1 mph63%30.45 "Hg10 mi
11:00 AM54 °FSunny.1 mph63%30.45 "Hg10 mi
10:30 AM50 °FSunny.2 mph71%30.42 "Hg10 mi
10:00 AM46 °FSunny.2 mph82%30.42 "Hg10 mi
9:30 AM41 °FSunny.2 mph93%30.39 "Hg10 mi
9:00 AM39 °FSunny.3 mph93%30.39 "Hg10 mi
Weather by CustomWeather, © 2014

See weather overviewHow to use our weather pages